Time,TemperatureF,DewpointF,PressureIn,WindDirection,WindDirectionDegrees,WindSpeedMPH,WindSpeedGustMPH,Humidity,HourlyPrecipIn,Conditions,Clouds,dailyrainin,SoftwareType,DateUTC
2013-05-20 00:02:00,69.0,63.0,29.69,SE,140,1.0,4.0,81,0.00,,,0.19,,2013-05-20 05:02:00,
2013-05-20 00:12:00,69.0,63.0,29.69,SE,140,1.0,4.0,81,0.00,,,0.19,,2013-05-20 05:12:00,
2013-05-20 00:22:00,69.0,63.0,29.67,SE,133,2.0,7.0,80,0.00,,,0.19,,2013-05-20 05:22:00,
2013-05-20 00:32:00,69.0,63.0,29.66,SE,131,2.0,8.0,81,0.00,,,0.19,,2013-05-20 05:32:00,
2013-05-20 00:42:00,69.0,63.0,29.66,SE,131,2.0,8.0,81,0.00,,,0.19,,2013-05-20 05:42:00,
2013-05-20 00:51:00,69.0,63.0,29.65,SE,138,1.0,8.0,82,0.00,,,0.19,,2013-05-20 05:51:00,
2013-05-20 01:01:00,70.0,65.0,29.66,SSE,153,1.0,4.0,84,0.00,,,0.19,,2013-05-20 06:01:00,
2013-05-20 01:11:00,70.0,65.0,29.66,SSE,153,1.0,4.0,84,0.00,,,0.19,,2013-05-20 06:11:00,
2013-05-20 01:21:00,72.0,67.0,29.66,SE,136,1.0,5.0,84,0.00,,,0.19,,2013-05-20 06:21:00,
2013-05-20 01:32:00,74.0,67.0,29.68,West,279,6.0,12.0,78,0.00,,,0.19,,2013-05-20 06:32:00,
2013-05-20 01:42:00,74.0,67.0,29.68,West,279,6.0,12.0,78,0.00,,,0.19,,2013-05-20 06:42:00,
2013-05-20 01:52:00,72.0,63.0,29.68,West,262,4.0,13.0,74,0.00,,,0.19,,2013-05-20 06:52:00,
2013-05-20 02:02:00,70.0,62.0,29.68,NNW,331,1.0,7.0,76,0.00,,,0.19,,2013-05-20 07:02:00,
2013-05-20 02:12:00,70.0,62.0,29.68,NNW,331,1.0,7.0,76,0.00,,,0.19,,2013-05-20 07:12:00,
2013-05-20 02:21:00,69.0,61.0,29.67,West,259,0.0,4.0,77,0.00,,,0.19,,2013-05-20 07:21:00,
2013-05-20 02:32:00,68.0,62.0,29.67,West,259,1.0,2.0,80,0.00,,,0.19,,2013-05-20 07:32:00,
2013-05-20 02:42:00,68.0,62.0,29.67,West,259,1.0,2.0,80,0.00,,,0.19,,2013-05-20 07:42:00,
2013-05-20 02:52:00,67.0,61.0,29.68,NW,309,1.0,3.0,80,0.00,,,0.19,,2013-05-20 07:52:00,
2013-05-20 03:01:00,67.0,61.0,29.69,WNW,286,0.0,3.0,81,0.00,,,0.19,,2013-05-20 08:01:00,
2013-05-20 03:11:00,67.0,61.0,29.69,WNW,286,0.0,3.0,81,0.00,,,0.19,,2013-05-20 08:11:00,
2013-05-20 03:21:00,67.0,61.0,29.67,WNW,286,0.0,2.0,82,0.00,,,0.19,,2013-05-20 08:21:00,
2013-05-20 03:32:00,67.0,62.0,29.69,West,279,0.0,3.0,83,0.00,,,0.19,,2013-05-20 08:32:00,
2013-05-20 03:41:00,67.0,62.0,29.69,West,279,0.0,3.0,83,0.00,,,0.19,,2013-05-20 08:41:00,
2013-05-20 03:51:00,67.0,62.0,29.69,SE,141,0.0,3.0,83,0.00,,,0.19,,2013-05-20 08:51:00,
2013-05-20 04:02:00,68.0,61.0,29.70,WSW,248,2.0,7.0,78,0.00,,,0.19,,2013-05-20 09:02:00,
2013-05-20 04:12:00,68.0,61.0,29.70,WSW,248,2.0,7.0,78,0.00,,,0.19,,2013-05-20 09:12:00,
2013-05-20 04:21:00,68.0,61.0,29.69,South,191,0.0,5.0,78,0.00,,,0.19,,2013-05-20 09:21:00,
2013-05-20 04:32:00,67.0,61.0,29.65,SW,234,0.0,1.0,82,0.02,,,0.21,,2013-05-20 09:32:00,
2013-05-20 04:43:00,67.0,61.0,29.65,SW,234,0.0,1.0,82,0.02,,,0.21,,2013-05-20 09:43:00,
2013-05-20 04:52:00,66.0,61.0,29.67,SE,144,1.0,4.0,85,0.02,,,0.21,,2013-05-20 09:52:00,
2013-05-20 05:03:00,66.0,61.0,29.64,SE,130,1.0,6.0,85,0.02,,,0.21,,2013-05-20 10:03:00,
2013-05-20 05:12:00,66.0,61.0,29.64,SE,130,1.0,6.0,85,0.02,,,0.21,,2013-05-20 10:12:00,
2013-05-20 05:22:00,65.0,61.0,29.65,SE,139,2.0,6.0,86,0.02,,,0.21,,2013-05-20 10:22:00,
2013-05-20 05:32:00,65.0,61.0,29.68,SSE,153,0.0,3.0,87,0.00,,,0.21,,2013-05-20 10:32:00,
2013-05-20 05:42:00,65.0,61.0,29.68,SSE,153,0.0,3.0,87,0.00,,,0.21,,2013-05-20 10:42:00,
2013-05-20 05:52:00,65.0,61.0,29.72,ESE,117,4.0,11.0,86,0.00,,,0.21,,2013-05-20 10:52:00,
2013-05-20 06:02:00,65.0,60.0,29.73,East,99,4.0,16.0,84,0.01,,,0.22,,2013-05-20 11:02:00,
2013-05-20 06:12:00,65.0,60.0,29.73,East,99,4.0,16.0,84,0.01,,,0.22,,2013-05-20 11:12:00,
2013-05-20 06:21:00,64.0,60.0,29.71,South,178,4.0,11.0,86,0.03,,,0.24,,2013-05-20 11:21:00,
2013-05-20 06:32:00,64.0,60.0,29.72,ENE,75,3.0,8.0,88,0.04,,,0.25,,2013-05-20 11:32:00,
2013-05-20 06:42:00,64.0,60.0,29.72,ENE,75,3.0,8.0,88,0.04,,,0.25,,2013-05-20 11:42:00,
2013-05-20 06:51:00,63.0,60.0,29.70,SE,141,3.0,9.0,89,0.05,,,0.26,,2013-05-20 11:51:00,
2013-05-20 07:01:00,63.0,60.0,29.66,SE,136,4.0,14.0,89,0.04,,,0.26,,2013-05-20 12:01:00,
2013-05-20 07:11:00,63.0,60.0,29.66,SE,136,4.0,14.0,89,0.04,,,0.26,,2013-05-20 12:11:00,
2013-05-20 07:21:00,63.0,60.0,29.63,SSE,148,3.0,13.0,89,0.02,,,0.26,,2013-05-20 12:21:00,
2013-05-20 07:32:00,63.0,59.0,29.64,SE,125,7.0,15.0,88,0.01,,,0.26,,2013-05-20 12:32:00,
2013-05-20 07:41:00,63.0,59.0,29.64,SE,125,7.0,15.0,88,0.01,,,0.26,,2013-05-20 12:41:00,
2013-05-20 07:52:00,64.0,60.0,29.65,SE,126,3.0,9.0,87,0.00,,,0.26,,2013-05-20 12:52:00,
2013-05-20 08:01:00,64.0,60.0,29.65,SE,138,2.0,5.0,86,0.00,,,0.26,,2013-05-20 13:01:00,
2013-05-20 08:11:00,64.0,60.0,29.65,SE,138,2.0,5.0,86,0.00,,,0.26,,2013-05-20 13:11:00,
2013-05-20 08:22:00,65.0,60.0,29.65,SE,139,3.0,9.0,85,0.00,,,0.26,,2013-05-20 13:22:00,
2013-05-20 08:31:00,67.0,61.0,29.67,ESE,108,4.0,9.0,82,0.00,,,0.26,,2013-05-20 13:31:00,
2013-05-20 08:41:00,67.0,61.0,29.67,ESE,108,4.0,9.0,82,0.00,,,0.26,,2013-05-20 13:41:00,
2013-05-20 08:52:00,69.0,61.0,29.65,SE,124,4.0,11.0,77,0.00,,,0.26,,2013-05-20 13:52:00,
2013-05-20 09:01:00,70.0,62.0,29.66,SE,134,2.0,9.0,75,0.00,,,0.26,,2013-05-20 14:01:00,
2013-05-20 09:11:00,70.0,62.0,29.66,SE,134,2.0,9.0,75,0.00,,,0.26,,2013-05-20 14:11:00,
2013-05-20 09:22:00,71.0,61.0,29.66,NNW,343,4.0,13.0,70,0.00,,,0.26,,2013-05-20 14:22:00,
2013-05-20 09:32:00,72.0,61.0,29.67,SW,221,4.0,14.0,69,0.00,,,0.26,,2013-05-20 14:32:00,
2013-05-20 09:42:00,72.0,61.0,29.67,SW,221,4.0,14.0,69,0.00,,,0.26,,2013-05-20 14:42:00,
2013-05-20 09:52:00,72.0,61.0,29.67,SSE,164,3.0,11.0,69,0.00,,,0.26,,2013-05-20 14:52:00,
2013-05-20 10:01:00,73.0,62.0,29.68,South,177,3.0,15.0,68,0.00,,,0.26,,2013-05-20 15:01:00,
2013-05-20 10:11:00,73.0,62.0,29.68,South,177,3.0,15.0,68,0.00,,,0.26,,2013-05-20 15:11:00,
2013-05-20 10:21:00,74.0,61.0,29.68,SSW,192,4.0,21.0,64,0.00,,,0.26,,2013-05-20 15:21:00,
2013-05-20 10:33:00,75.0,62.0,29.67,SE,140,2.0,10.0,65,0.00,,,0.26,,2013-05-20 15:33:00,
2013-05-20 10:42:00,75.0,62.0,29.67,SE,140,2.0,10.0,65,0.00,,,0.26,,2013-05-20 15:42:00,
2013-05-20 10:53:00,75.0,61.0,29.69,South,189,3.0,10.0,62,0.00,,,0.26,,2013-05-20 15:53:00,
2013-05-20 11:03:00,76.0,62.0,29.70,ESE,107,6.0,18.0,62,0.00,,,0.26,,2013-05-20 16:03:00,
2013-05-20 11:12:00,76.0,62.0,29.70,ESE,107,6.0,18.0,62,0.00,,,0.26,,2013-05-20 16:12:00,
2013-05-20 11:22:00,76.0,61.0,29.70,NNW,340,5.0,13.0,60,0.00,,,0.26,,2013-05-20 16:22:00,
2013-05-20 11:33:00,77.0,63.0,29.70,ESE,103,2.0,10.0,63,0.00,,,0.26,,2013-05-20 16:33:00,
2013-05-20 11:42:00,77.0,63.0,29.70,ESE,103,2.0,10.0,63,0.00,,,0.26,,2013-05-20 16:42:00,
2013-05-20 11:52:00,78.0,62.0,29.70,SW,215,3.0,12.0,59,0.00,,,0.26,,2013-05-20 16:52:00,
2013-05-20 12:02:00,78.0,64.0,29.70,ESE,119,2.0,13.0,62,0.00,,,0.26,,2013-05-20 17:02:00,
2013-05-20 12:12:00,78.0,64.0,29.70,ESE,119,2.0,13.0,62,0.00,,,0.26,,2013-05-20 17:12:00,
2013-05-20 12:22:00,78.0,62.0,29.71,WNW,303,5.0,14.0,59,0.00,,,0.26,,2013-05-20 17:22:00,
2013-05-20 12:33:00,78.0,62.0,29.70,ENE,76,2.0,14.0,58,0.00,,,0.26,,2013-05-20 17:33:00,
2013-05-20 12:45:00,78.0,62.0,29.70,ENE,76,2.0,14.0,58,0.00,,,0.26,,2013-05-20 17:45:00,
2013-05-20 12:53:00,78.0,61.0,29.70,SW,234,3.0,14.0,56,0.00,,,0.26,,2013-05-20 17:53:00,
2013-05-20 13:02:00,79.0,62.0,29.70,SE,146,3.0,9.0,56,0.00,,,0.26,,2013-05-20 18:02:00,
2013-05-20 13:12:00,79.0,62.0,29.70,SE,146,3.0,9.0,56,0.00,,,0.26,,2013-05-20 18:12:00,
2013-05-20 13:23:00,79.0,61.0,29.70,SE,136,4.0,14.0,54,0.00,,,0.26,,2013-05-20 18:23:00,
2013-05-20 13:32:00,80.0,62.0,29.70,WSW,249,2.0,11.0,55,0.00,,,0.26,,2013-05-20 18:32:00,
2013-05-20 13:42:00,80.0,62.0,29.70,WSW,249,2.0,11.0,55,0.00,,,0.26,,2013-05-20 18:42:00,
2013-05-20 13:55:00,81.0,62.0,29.71,NW,314,4.0,10.0,53,0.00,,,0.26,,2013-05-20 18:55:00,
2013-05-20 14:04:00,81.0,61.0,29.71,SW,221,2.0,11.0,51,0.00,,,0.26,,2013-05-20 19:04:00,
2013-05-20 14:11:00,81.0,61.0,29.71,SW,221,2.0,11.0,51,0.00,,,0.26,,2013-05-20 19:11:00,
2013-05-20 14:21:00,82.0,61.0,29.71,SE,139,5.0,14.0,49,0.00,,,0.26,,2013-05-20 19:21:00,
2013-05-20 14:32:00,82.0,61.0,29.72,SW,233,4.0,11.0,49,0.00,,,0.26,,2013-05-20 19:32:00,
2013-05-20 14:41:00,82.0,61.0,29.72,SW,233,4.0,11.0,49,0.00,,,0.26,,2013-05-20 19:41:00,
2013-05-20 14:52:00,82.0,61.0,29.72,ESE,108,4.0,17.0,50,0.00,,,0.26,,2013-05-20 19:52:00,
2013-05-20 15:01:00,82.0,61.0,29.72,SE,143,5.0,16.0,50,0.00,,,0.26,,2013-05-20 20:01:00,
2013-05-20 15:12:00,82.0,61.0,29.72,SE,143,5.0,16.0,50,0.00,,,0.26,,2013-05-20 20:12:00,
2013-05-20 15:21:00,83.0,63.0,29.72,West,259,4.0,13.0,51,0.00,,,0.26,,2013-05-20 20:21:00,
2013-05-20 15:32:00,81.0,60.0,29.68,ESE,123,4.0,14.0,49,0.00,,,0.26,,2013-05-20 20:32:00,
2013-05-20 15:42:00,81.0,60.0,29.68,ESE,123,4.0,14.0,49,0.00,,,0.26,,2013-05-20 20:42:00,
2013-05-20 15:51:00,82.0,61.0,29.67,SE,134,4.0,10.0,49,0.00,,,0.26,,2013-05-20 20:51:00,
2013-05-20 16:01:00,83.0,62.0,29.67,SE,145,2.0,11.0,49,0.00,,,0.26,,2013-05-20 21:01:00,
2013-05-20 16:11:00,83.0,62.0,29.67,SE,145,2.0,11.0,49,0.00,,,0.26,,2013-05-20 21:11:00,
2013-05-20 16:21:00,83.0,61.0,29.67,ESE,122,2.0,8.0,47,0.00,,,0.26,,2013-05-20 21:21:00,
2013-05-20 16:33:00,84.0,61.0,29.67,SE,132,3.0,13.0,46,0.00,,,0.26,,2013-05-20 21:33:00,
2013-05-20 16:43:00,84.0,60.0,29.67,WSW,239,6.0,16.0,44,0.00,,,0.26,,2013-05-20 21:43:00,
2013-05-20 16:53:00,84.0,60.0,29.67,WSW,239,6.0,16.0,44,0.00,,,0.26,,2013-05-20 21:53:00,
2013-05-20 17:02:00,84.0,60.0,29.67,East,101,3.0,10.0,45,0.00,,,0.26,,2013-05-20 22:02:00,
2013-05-20 17:12:00,84.0,60.0,29.67,East,101,3.0,10.0,45,0.00,,,0.26,,2013-05-20 22:12:00,
2013-05-20 17:23:00,84.0,60.0,29.67,ESE,121,4.0,10.0,45,0.00,,,0.26,,2013-05-20 22:23:00,
2013-05-20 17:33:00,85.0,61.0,29.66,NNW,346,2.0,10.0,45,0.00,,,0.26,,2013-05-20 22:33:00,
2013-05-20 17:42:00,85.0,61.0,29.66,NNW,346,2.0,10.0,45,0.00,,,0.26,,2013-05-20 22:42:00,
2013-05-20 17:52:00,85.0,61.0,29.66,ESE,113,2.0,8.0,44,0.00,,,0.26,,2013-05-20 22:52:00,
2013-05-20 18:03:00,84.0,62.0,29.66,West,259,3.0,8.0,47,0.00,,,0.26,,2013-05-20 23:03:00,
2013-05-20 18:12:00,84.0,62.0,29.66,West,259,3.0,8.0,47,0.00,,,0.26,,2013-05-20 23:12:00,
2013-05-20 18:22:00,83.0,61.0,29.66,SSE,150,4.0,12.0,48,0.00,,,0.26,,2013-05-20 23:22:00,
2013-05-20 18:32:00,82.0,60.0,29.66,ESE,113,2.0,9.0,48,0.00,,,0.26,,2013-05-20 23:32:00,
2013-05-20 18:42:00,82.0,60.0,29.66,ESE,113,2.0,9.0,48,0.00,,,0.26,,2013-05-20 23:42:00,
2013-05-20 18:52:00,82.0,59.0,29.66,SSE,150,2.0,9.0,46,0.00,,,0.26,,2013-05-20 23:52:00,
2013-05-20 19:01:00,81.0,59.0,29.65,SE,125,5.0,10.0,47,0.00,,,0.26,,2013-05-21 00:01:00,
2013-05-20 19:11:00,81.0,59.0,29.65,SE,125,5.0,10.0,47,0.00,,,0.26,,2013-05-21 00:11:00,
2013-05-20 19:21:00,81.0,61.0,29.65,ENE,73,3.0,7.0,50,0.00,,,0.26,,2013-05-21 00:21:00,
2013-05-20 19:32:00,80.0,60.0,29.66,ESE,117,2.0,8.0,50,0.00,,,0.26,,2013-05-21 00:32:00,
2013-05-20 19:42:00,79.0,59.0,29.65,East,95,1.0,7.0,51,0.00,,,0.26,,2013-05-21 00:42:00,
2013-05-20 19:52:00,79.0,59.0,29.65,East,95,1.0,7.0,51,0.00,,,0.26,,2013-05-21 00:52:00,
2013-05-20 20:01:00,78.0,59.0,29.64,SE,142,0.0,7.0,52,0.00,,,0.26,,2013-05-21 01:01:00,
2013-05-20 20:11:00,78.0,59.0,29.64,SE,142,0.0,7.0,52,0.00,,,0.26,,2013-05-21 01:11:00,
2013-05-20 20:22:00,78.0,58.0,29.65,West,268,0.0,5.0,50,0.00,,,0.26,,2013-05-21 01:22:00,
2013-05-20 20:32:00,77.0,57.0,29.64,South,183,0.0,3.0,50,0.00,,,0.24,,2013-05-21 01:32:00,
2013-05-20 20:42:00,77.0,57.0,29.64,South,183,0.0,3.0,50,0.00,,,0.24,,2013-05-21 01:42:00,
2013-05-20 20:52:00,77.0,58.0,29.64,South,183,0.0,1.0,52,0.00,,,0.24,,2013-05-21 01:52:00,
2013-05-20 21:02:00,76.0,61.0,29.65,SE,145,1.0,3.0,60,0.00,,,0.24,,2013-05-21 02:02:00,
2013-05-20 21:11:00,76.0,61.0,29.65,SE,145,1.0,3.0,60,0.00,,,0.24,,2013-05-21 02:11:00,
2013-05-20 21:21:00,72.0,62.0,29.66,West,261,2.0,9.0,72,0.01,,,0.25,,2013-05-21 02:21:00,
2013-05-20 21:32:00,67.0,62.0,29.68,WSW,252,5.0,16.0,84,0.39,,,0.46,,2013-05-21 02:32:00,
2013-05-20 21:42:00,67.0,62.0,29.68,WSW,252,5.0,16.0,84,0.39,,,0.46,,2013-05-21 02:42:00,
2013-05-20 21:52:00,65.0,62.0,29.64,SE,140,2.0,6.0,89,0.52,,,0.59,,2013-05-21 02:52:00,
2013-05-20 22:02:00,65.0,62.0,29.67,SSE,164,0.0,3.0,90,0.53,,,0.60,,2013-05-21 03:02:00,
2013-05-20 22:11:00,65.0,62.0,29.67,SSE,164,0.0,3.0,90,0.53,,,0.60,,2013-05-21 03:11:00,
2013-05-20 22:21:00,65.0,61.0,29.71,SSW,198,5.0,14.0,87,0.54,,,0.62,,2013-05-21 03:21:00,
2013-05-20 22:33:00,64.0,61.0,29.73,ENE,62,6.0,16.0,90,0.20,,,0.68,,2013-05-21 03:33:00,
2013-05-20 22:43:00,63.0,60.0,29.68,SE,135,3.0,6.0,91,0.12,,,0.71,,2013-05-21 03:43:00,
2013-05-20 22:53:00,63.0,60.0,29.68,SE,135,3.0,6.0,91,0.12,,,0.71,,2013-05-21 03:53:00,
2013-05-20 23:03:00,63.0,60.0,29.66,SE,135,4.0,7.0,91,0.13,,,0.73,,2013-05-21 04:03:00,
2013-05-20 23:13:00,63.0,60.0,29.66,SE,135,4.0,7.0,91,0.13,,,0.73,,2013-05-21 04:13:00,
2013-05-20 23:23:00,63.0,60.0,29.63,SSE,149,4.0,8.0,91,0.13,,,0.75,,2013-05-21 04:23:00,
2013-05-20 23:33:00,64.0,61.0,29.57,SSE,153,6.0,15.0,89,0.07,,,0.76,,2013-05-21 04:33:00,
2013-05-20 23:42:00,64.0,61.0,29.57,SSE,153,6.0,15.0,89,0.07,,,0.76,,2013-05-21 04:42:00,
2013-05-20 23:52:00,64.0,60.0,29.59,SSE,148,5.0,11.0,88,0.05,,,0.76,,2013-05-21 04:52:00,